This is the latest recevied weather packets stored in our database for station/object N5JXS. If no packets are shown the sender has not sent any weather packets the latest 10 day(s).
| Time | Temp. | Humidity | Pressure | Rain* | Wind** | Luminosity | Snow |
|---|---|---|---|---|---|---|---|
| 1777677737 | 8.89° C | 41% | 1022.9 hPa | 0 mm | - | 95 W/m² | - |
| 1777677434 | 8.89° C | 39% | 1022.7 hPa | 0 mm | - | 76 W/m² | - |
| 1777677132 | 8.89° C | 40% | 1022.7 hPa | 0 mm | - | 90 W/m² | - |
| 1777676830 | 9.44° C | 43% | 1023 hPa | 0 mm | - | 124 W/m² | - |
| 1777676528 | 9.44° C | 42% | 1022.9 hPa | 0 mm | - | 136 W/m² | - |
| 1777676226 | 9.44° C | 41% | 1023.1 hPa | 0 mm | - | 114 W/m² | - |
| 1777675923 | 8.89° C | 42% | 1022.6 hPa | 0 mm | - | 135 W/m² | - |
| 1777675618 | 9.44° C | 40% | 1022.7 hPa | 0 mm | - | 142 W/m² | - |
| 1777675316 | 9.44° C | 39% | 1023.1 hPa | 0 mm | - | 130 W/m² | - |
| 1777675012 | 10° C | 40% | 1022.7 hPa | 0 mm | - | 124 W/m² | - |
| 1777674709 | 10.56° C | 36% | 1022.7 hPa | 0 mm | - | 137 W/m² | - |
| 1777674406 | 10.56° C | 39% | 1023 hPa | 0 mm | - | 156 W/m² | - |
| 1777674103 | 10° C | 38% | 1022.5 hPa | 0 mm | - | 308 W/m² | - |
| 1777673799 | 9.44° C | 39% | 1022.9 hPa | 0 mm | - | 167 W/m² | - |
| 1777673496 | 8.89° C | 40% | 1022.5 hPa | 0 mm | - | 160 W/m² | - |
| 1777673194 | 8.33° C | 41% | 1022.6 hPa | 0 mm | - | 135 W/m² | - |
| 1777672891 | 8.33° C | 41% | 1022.7 hPa | 0 mm | - | 122 W/m² | - |
| 1777672588 | 8.33° C | 43% | 1023 hPa | 0 mm | - | 114 W/m² | - |
| 1777672283 | 8.89° C | 44% | 1023.1 hPa | 0 mm | - | 109 W/m² | - |
| 1777671978 | 8.33° C | 46% | 1022.9 hPa | 0 mm | - | 160 W/m² | - |
| 1777671674 | 8.33° C | 48% | 1023 hPa | 0 mm | - | 118 W/m² | - |
| 1777671371 | 8.33° C | 45% | 1023.1 hPa | 0 mm | - | 94 W/m² | - |
| 1777671067 | 8.33° C | 44% | 1022.9 hPa | 0 mm | - | 111 W/m² | - |
| 1777670763 | 8.89° C | 42% | 1023.1 hPa | 0 mm | - | 194 W/m² | - |
| 1777670460 | 8.89° C | 43% | 1023.1 hPa | 0 mm | - | 255 W/m² | - |
* Rain latest hour (hover to see other rain measurements)
** Current wind speed in m/s (hover to see current wind gust speed)